DW3471 Weather Reports


time (UTC)temp
C
wind
direction
speed
KPH
gust
KPH
rain 1hr
cm
rain 24hr
cm
rain mn
cm
humidity
%
barometer
mb
20260506202151 16 327 3.2 11.3 0.00 0.20 0.20 83 1006.3
20260506201119 17 209 1.6 9.7 0.00 0.20 0.20 83 1006.3
20260506200118 17 335 3.2 8.0 0.00 0.20 0.20 85 1006.3
20260506195118 17 337 4.8 11.3 0.00 0.20 0.20 87 1006.7
20260506194046 16 355 1.6 6.4 0.00 0.20 0.20 88 1006.7
20260506193014 16 20 1.6 8.0 0.00 0.20 0.20 88 1007.0
20260506192014 16 249 3.2 9.7 0.00 0.20 0.20 88 1007.0
20260506191013 16 236 3.2 9.7 0.00 0.20 0.20 88 1007.0
20260506190012 16 95 3.2 11.3 0.00 0.20 0.20 88 1007.0
20260506185012 16 142 4.8 12.9 0.00 0.20 0.20 88 1007.0
20260506184011 16 289 6.4 12.9 0.00 0.20 0.20 89 1007.0
20260506183010 16 322 3.2 17.7 0.00 0.20 0.20 89 1007.3
20260506182010 16 74 3.2 14.5 0.00 0.20 0.20 89 1007.3
20260506181009 16 9 4.8 11.3 0.00 0.20 0.20 89 1007.3
20260506180009 16 251 4.8 11.3 0.00 0.20 0.20 89 1007.4
20260506175008 16 168 4.8 11.3 0.00 0.20 0.20 89 1007.4
20260506174008 16 342 3.2 9.7 0.00 0.20 0.20 89 1007.4
20260506173007 16 328 4.8 16.1 0.03 0.20 0.20 89 1007.4
20260506172007 16 279 4.8 9.7 0.03 0.20 0.20 89 1007.7
20260506171006 16 136 3.2 11.3 0.08 0.20 0.20 89 1007.4
20260506170006 16 93 4.8 8.0 0.08 0.20 0.20 90 1007.4
20260506165005 16 48 4.8 12.9 0.13 0.20 0.20 89 1007.4
20260506164004 16 63 3.2 9.7 0.13 0.20 0.20 89 1007.7
20260506163004 16 188 3.2 14.5 0.15 0.18 0.18 89 1007.7
20260506162003 16 62 1.6 3.2 0.15 0.18 0.18 89 1008.1
20260506161003 16 40 0.0 4.8 0.13 0.13 0.13 88 1008.8
20260506160002 16 37 1.6 4.8 0.13 0.13 0.13 88 1008.8
20260506155001 16 199 4.8 6.4 0.08 0.08 0.08 87 1009.1
20260506154001 16 0 1.6 3.2 0.08 0.08 0.08 86 1009.1
20260506153000 16 315 3.2 3.2 0.03 0.03 0.03 84 1008.8
20260506151959 16 82 1.6 8.0 0.03 0.03 0.03 82 1009.1
20260506150958 16 26 0.0 6.4 0.00 0.00 0.00 80 1009.1
20260506145958 16 333 3.2 8.0 0.00 0.00 0.00 78 1008.4
20260506144957 17 67 1.6 6.4 0.00 0.00 0.00 76 1008.8
20260506143957 17 101 3.2 12.9 0.00 0.00 0.00 74 1008.8
20260506142956 18 19 1.6 12.9 0.00 0.00 0.00 72 1009.2
20260506141956 19 307 3.2 11.3 0.00 0.00 0.00 71 1008.9
20260506140955 20 336 3.2 11.3 0.00 0.00 0.00 71 1008.9
20260506135954 20 341 4.8 14.5 0.00 0.00 0.00 70 1008.9
20260506134923 18 305 3.2 12.9 0.00 0.00 0.00 72 1008.5
20260506133922 18 162 3.2 9.7 0.00 0.00 0.00 72 1008.9
20260506132850 18 63 4.8 11.3 0.00 0.00 0.00 73 1008.9
20260506131818 18 299 1.6 11.3 0.00 0.00 0.00 73 1008.9
20260506130818 18 5 4.8 14.5 0.00 0.00 0.00 73 1009.2
20260506125746 18 59 4.8 11.3 0.00 0.00 0.00 73 1009.2
20260506124746 18 268 4.8 12.9 0.00 0.00 0.00 73 1008.9
20260506123745 17 274 4.8 16.1 0.00 0.00 0.00 74 1008.9
20260506122744 17 307 3.2 6.4 0.00 0.00 0.00 74 1008.9
20260506121744 17 31 3.2 12.9 0.00 0.00 0.00 74 1008.5
20260506120712 16 55 3.2 8.0 0.00 0.00 0.00 75 1008.9
20260506115712 16 335 4.8 9.7 0.00 0.00 0.00 76 1008.9
20260506114711 16 30 3.2 6.4 0.00 0.00 0.00 76 1008.9
20260506113711 16 24 3.2 8.0 0.00 0.00 0.00 76 1008.9
20260506112710 16 86 4.8 14.5 0.00 0.00 0.00 77 1008.5
20260506111710 16 107 4.8 12.9 0.00 0.00 0.00 76 1008.5
20260506110638 16 59 4.8 9.7 0.00 0.00 0.00 77 1008.5
20260506105637 16 0 3.2 9.7 0.00 0.00 0.00 78 1008.9
20260506104606 15 16 4.8 11.3 0.00 0.00 0.00 78 1008.5
20260506103605 15 49 6.4 11.3 0.00 0.00 0.00 78 1008.6
20260506102605 15 28 1.6 6.4 0.00 0.00 0.00 79 1008.6
20260506101604 15 38 3.2 6.4 0.00 0.00 0.00 79 1008.6
20260506100604 15 350 4.8 11.3 0.00 0.00 0.00 79 1008.6
20260506095603 15 18 1.6 12.9 0.00 0.00 0.00 79 1008.9
20260506094602 15 63 1.6 6.4 0.00 0.00 0.00 78 1008.6
20260506093602 15 98 3.2 9.7 0.00 0.00 0.00 78 1008.6
20260506092530 16 179 3.2 4.8 0.00 0.00 0.00 78 1008.6
20260506091529 16 181 3.2 12.9 0.00 0.00 0.00 78 1008.6
20260506090529 16 119 3.2 6.4 0.00 0.00 0.00 77 1008.6
20260506085528 16 61 4.8 9.7 0.00 0.00 0.00 78 1008.6
20260506084528 16 54 4.8 8.0 0.00 0.00 0.00 78 1008.6
20260506083527 16 342 1.6 9.7 0.00 0.00 0.00 78 1009.0
20260506082526 15 103 1.6 6.4 0.00 0.00 0.00 79 1009.0
20260506081525 16 83 1.6 9.7 0.00 0.00 0.00 78 1009.0
20260506080525 16 359 3.2 4.8 0.00 0.00 0.00 78 1009.0
20260506073523 16 27 4.8 8.0 0.00 0.00 0.00 78 1009.0
20260506072451 16 74 1.6 9.7 0.00 0.00 0.00 77 1009.3
20260506071451 16 355 1.6 6.4 0.00 0.00 0.00 77 1009.3
20260506070451 16 204 1.6 6.4 0.00 0.00 0.00 77 1009.3
20260506062448 17 56 0.0 4.8 0.00 0.00 0.00 75 1009.7
20260506061447 17 25 3.2 4.8 0.00 0.00 0.00 75 1009.7
20260506060447 17 287 1.6 4.8 0.00 0.00 0.00 75 1009.7
20260506051412 18 204 1.6 6.4 0.00 0.00 0.00 73 1010.0
20260506050412 18 313 1.6 6.4 0.00 0.00 0.00 72 1010.0
20260506044339 18 173 3.2 12.9 0.00 0.00 0.00 71 1010.0
20260506043338 19 46 3.2 12.9 0.00 0.00 0.00 71 1010.0
20260506042338 19 85 1.6 9.7 0.00 0.00 0.00 70 1010.0
20260506041337 19 281 3.2 9.7 0.00 0.00 0.00 69 1010.0
20260506040305 20 97 3.2 11.3 0.00 0.00 0.00 68 1010.0
20260506035306 20 41 3.2 11.3 0.00 0.00 0.00 68 1009.7
20260506034304 20 70 3.2 9.7 0.00 0.00 0.00 67 1010.0
20260506033304 20 15 1.6 6.4 0.00 0.00 0.00 67 1009.7
20260506032305 20 36 4.8 9.7 0.00 0.00 0.00 67 1010.0
20260506031303 20 35 3.2 8.0 0.00 0.00 0.00 66 1010.0
20260506030302 20 32 1.6 8.0 0.00 0.00 0.00 65 1010.0
20260506025230 20 182 3.2 12.9 0.00 0.00 0.00 64 1010.0
20260506024159 20 47 1.6 8.0 0.00 0.00 0.00 64 1010.0
20260506023158 20 283 3.2 8.0 0.00 0.00 0.00 63 1010.0
20260506022158 20 352 3.2 8.0 0.00 0.00 0.00 62 1010.0
20260506021157 20 65 1.6 9.7 0.00 0.00 0.00 62 1010.0
20260506020156 21 25 3.2 8.0 0.00 0.00 0.00 61 1009.9
20260506015156 21 125 4.8 11.3 0.00 0.00 0.00 59 1009.9
20260506014155 21 46 3.2 6.4 0.00 0.00 0.00 57 1009.9
20260506013154 21 268 3.2 8.0 0.00 0.00 0.00 55 1009.6
20260506012154 21 36 4.8 11.3 0.00 0.00 0.00 53 1009.6
20260506011153 22 301 6.4 8.0 0.00 0.00 0.00 52 1009.5
20260506010153 22 343 4.8 11.3 0.00 0.00 0.00 50 1009.5
20260506005152 22 4 3.2 6.4 0.00 0.00 0.00 49 1009.2
20260506004152 22 73 3.2 8.0 0.00 0.00 0.00 49 1009.2
20260506003151 23 67 3.2 9.7 0.00 0.00 0.00 46 1008.8
20260506002150 23 82 3.2 9.7 0.00 0.00 0.00 45 1008.8
20260506001119 23 270 4.8 14.5 0.00 0.00 0.00 46 1008.5
20260506000118 23 314 3.2 9.7 0.00 0.00 0.00 46 1008.5
20260505235117 23 323 3.2 9.7 0.00 0.00 0.00 46 1008.4
20260505234117 23 339 1.6 11.3 0.00 0.00 0.00 47 1008.4
20260505233116 24 21 3.2 4.8 0.00 0.00 0.00 46 1008.4
20260505232115 24 351 3.2 8.0 0.00 0.00 0.00 45 1008.4
20260505231115 25 57 1.6 8.0 0.00 0.00 0.00 45 1008.1
20260505230043 25 20 3.2 9.7 0.00 0.00 0.00 43 1008.5
20260505225042 25 314 3.2 19.3 0.00 0.00 0.00 42 1008.1
20260505224011 26 72 3.2 9.7 0.00 0.00 0.00 40 1008.2
20260505223010 27 256 3.2 14.5 0.00 0.00 0.00 38 1008.2
20260505222009 27 30 3.2 17.7 0.00 0.00 0.00 37 1008.2
20260505220938 27 294 4.8 14.5 0.00 0.00 0.00 36 1008.2
20260505215937 27 353 3.2 19.3 0.00 0.00 0.00 36 1008.2
20260505214937 27 253 6.4 16.1 0.00 0.00 0.00 34 1008.2
20260505213936 27 96 3.2 14.5 0.00 0.00 0.00 33 1007.8
20260505212834 27 284 4.8 16.1 0.00 0.00 0.00 34 1008.2
20260505211833 28 296 8.0 11.3 0.00 0.00 0.00 33 1008.2
20260505210832 27 113 3.2 16.1 0.00 0.00 0.00 33 1008.2
20260505205659 28 318 6.4 17.7 0.00 0.00 0.00 31 1007.9
20260505204659 28 293 4.8 11.3 0.00 0.00 0.00 29 1007.9
20260505203658 28 5 3.2 14.5 0.00 0.00 0.00 30 1007.9
20260505202658 28 338 4.8 12.9 0.00 0.00 0.00 30 1007.9